FW9909 Weather Reports


Display with metric or nautical units.
time (UTC)temp
F
wind
direction
speed
MPH
gust
MPH
rain 1hr
in
rain 24hr
in
rain mn
in
humidity
%
barometer
mb
20260505200516 50 62 5.0 13.0 0.00 0.09 0.09 89 1008.1
20260505195535 50 52 6.0 12.0 0.00 0.09 0.09 89 1008.3
20260505194532 51 61 7.0 14.0 0.00 0.09 0.09 88 1008.6
20260505193531 52 68 6.0 13.0 0.00 0.09 0.09 86 1008.7
20260505192529 52 45 6.0 11.0 0.00 0.09 0.09 83 1008.5
20260505191547 53 52 5.0 12.0 0.00 0.09 0.09 81 1008.1
20260505190525 53 56 7.0 16.0 0.00 0.09 0.09 79 1008.0
20260505185523 53 62 5.0 8.0 0.00 0.09 0.09 79 1008.1
20260505184522 53 52 7.0 11.0 0.00 0.09 0.09 78 1008.4
20260505183520 54 50 6.0 10.0 0.00 0.09 0.09 78 1008.3
20260505182518 54 30 7.0 15.0 0.00 0.09 0.09 77 1008.0
20260505181516 55 59 7.0 13.0 0.00 0.09 0.09 76 1007.7
20260505180534 56 49 6.0 13.0 0.00 0.09 0.09 75 1007.8
20260505175532 55 55 6.0 11.0 0.00 0.09 0.09 76 1007.8
20260505174550 56 63 6.0 12.0 0.00 0.09 0.09 76 1008.0
20260505173529 56 52 5.0 10.0 0.00 0.09 0.09 76 1008.0
20260505172547 56 72 5.0 11.0 0.00 0.09 0.09 77 1008.1
20260505171525 56 47 6.0 11.0 0.00 0.09 0.09 78 1008.0
20260505170523 56 76 6.0 11.0 0.00 0.09 0.09 78 1007.9
20260505165521 56 82 6.0 15.0 0.00 0.09 0.09 78 1007.9
20260505164519 56 68 7.0 15.0 0.00 0.09 0.09 77 1007.8
20260505163517 56 59 7.0 12.0 0.00 0.09 0.09 77 1007.7
20260505162535 57 55 7.0 13.0 0.00 0.09 0.09 76 1007.9
20260505161533 57 66 6.0 12.0 0.00 0.09 0.09 75 1008.0
20260505160552 58 48 6.0 11.0 0.00 0.09 0.09 75 1008.2
20260505152524 59 60 4.0 7.0 0.00 0.09 0.09 76 1006.9
20260505151522 59 70 4.0 9.0 0.00 0.09 0.09 76 1006.7
20260505150520 59 50 5.0 8.0 0.00 0.09 0.09 77 1006.7
20260505140529 58 55 4.0 6.0 0.00 0.09 0.09 80 1007.0
20260505124535 58 69 4.0 6.0 0.00 0.09 0.09 82 1006.6
20260505123533 57 62 4.0 8.0 0.00 0.09 0.09 84 1006.4
20260505122531 58 52 4.0 6.0 0.00 0.09 0.09 84 1006.1
20260505121609 58 61 4.0 8.0 0.01 0.09 0.09 86 1005.9
20260505120527 58 71 3.0 6.0 0.01 0.09 0.09 86 1006.2
20260505115525 58 70 4.0 8.0 0.01 0.09 0.09 86 1005.9
20260505114543 59 47 4.0 6.0 0.01 0.09 0.09 85 1006.0
20260505113522 59 67 4.0 6.0 0.01 0.09 0.09 86 1005.7
20260505112520 60 36 5.0 14.0 0.01 0.09 0.09 85 1005.9
20260505111518 61 51 5.0 10.0 0.01 0.08 0.08 85 1005.3
20260505110516 61 57 4.0 9.0 0.01 0.08 0.08 86 1006.3
20260505101527 61 62 4.0 10.0 0.01 0.07 0.07 86 1005.3
20260505100525 60 45 4.0 6.0 0.01 0.07 0.07 87 1005.3
20260505095523 61 60 2.0 5.0 0.01 0.07 0.07 83 1004.7
20260505094521 61 318 2.0 4.0 0.02 0.07 0.07 81 1004.6
20260505093539 62 79 3.0 5.0 0.02 0.06 0.06 79 1004.4
20260505092618 61 263 3.0 8.0 0.04 0.06 0.06 78 1004.5
20260505091516 60 288 3.0 8.0 0.04 0.06 0.06 84 1003.7
20260505090534 60 191 5.0 12.0 0.05 0.06 0.06 90 1002.8
20260505085552 61 200 6.0 13.0 0.06 0.06 0.06 89 1003.6
20260505084530 61 174 5.0 10.0 0.05 0.05 0.05 90 1004.8
20260505083528 62 245 4.0 8.0 0.04 0.04 0.04 89 1005.6
20260505082546 62 199 4.0 8.0 0.02 0.02 0.02 88 1005.6
20260505081545 62 70 3.0 6.0 0.02 0.02 0.02 86 1005.5
20260505080523 63 236 2.0 6.0 0.01 0.01 0.01 82 1005.2
20260505075521 64 232 5.0 11.0 0.00 0.00 0.00 79 1005.1
20260505074539 64 236 5.0 10.0 0.00 0.00 0.00 75 1005.3
20260505073557 64 253 5.0 9.0 0.00 0.00 0.00 73 1005.2
20260505072515 64 222 3.0 6.0 0.00 0.00 0.00 73 1005.0
20260505071533 64 238 4.0 7.0 0.00 0.00 0.00 71 1005.1
20260505070532 64 220 3.0 6.0 0.00 0.00 0.00 71 1005.0
20260505065530 64 212 3.0 7.0 0.00 0.00 0.00 71 1004.9
20260505064528 64 233 3.0 6.0 0.00 0.00 0.00 72 1005.2
20260505063526 64 221 3.0 5.0 0.00 0.00 0.00 71 1005.5
20260505062524 64 206 3.0 6.0 0.00 0.00 0.00 71 1005.6
20260505061522 64 233 3.0 6.0 0.00 0.00 0.00 71 1005.7
20260505060520 64 197 3.0 7.0 0.00 0.00 0.00 71 1005.7
20260505055518 64 208 2.0 6.0 0.00 0.00 0.00 71 1005.6
20260505054517 64 197 3.0 6.0 0.00 0.00 0.00 71 1005.5
20260505053535 65 218 4.0 6.0 0.00 0.00 0.00 70 1005.6
20260505052533 65 223 3.0 6.0 0.00 0.00 0.00 70 1005.5
20260505051531 65 230 4.0 6.0 0.00 0.00 0.00 70 1005.6
20260505050529 65 207 5.0 8.0 0.00 0.00 0.00 70 1005.5
20260505041520 66 218 3.0 6.0 0.00 0.00 0.00 67 1006.2
20260505040518 66 236 2.0 3.0 0.00 0.00 0.00 66 1006.5
20260505035537 67 232 2.0 4.0 0.00 0.00 0.00 65 1006.6
20260505034534 67 214 2.0 4.0 0.00 0.00 0.00 65 1006.7
20260505033553 68 233 2.0 4.0 0.00 0.00 0.00 64 1006.7
20260505032531 68 209 2.0 4.0 0.00 0.00 0.00 63 1006.7
20260505031529 68 224 2.0 5.0 0.00 0.00 0.00 62 1006.8
20260505030527 69 253 3.0 8.0 0.00 0.00 0.00 61 1006.7
20260505025525 69 236 3.0 6.0 0.00 0.00 0.00 61 1006.6
20260505024523 69 233 4.0 9.0 0.00 0.00 0.00 60 1006.5
20260505023522 70 227 3.0 4.0 0.00 0.00 0.00 60 1006.3
20260505022519 70 236 4.0 6.0 0.00 0.00 0.00 60 1006.0
20260505021518 70 222 4.0 9.0 0.00 0.00 0.00 59 1006.1
20260505020516 70 240 4.0 8.0 0.00 0.00 0.00 59 1006.0
20260505015534 71 231 3.0 6.0 0.00 0.00 0.00 58 1005.8
20260505014532 71 252 2.0 6.0 0.00 0.00 0.00 57 1005.6
20260505013530 71 243 2.0 5.0 0.00 0.00 0.00 57 1005.5
20260505012529 71 231 3.0 5.0 0.00 0.00 0.00 56 1005.3
20260505011526 72 239 3.0 6.0 0.00 0.00 0.00 55 1005.2
20260505010525 72 218 2.0 3.0 0.00 0.00 0.00 55 1005.1
20260505005523 73 229 3.0 4.0 0.00 0.00 0.00 52 1005.1
20260505004521 74 241 4.0 6.0 0.00 0.00 0.00 51 1005.0
20260505003519 74 246 4.0 10.0 0.00 0.00 0.00 50 1004.9
20260505002517 74 237 4.0 10.0 0.00 0.00 0.00 50 1004.9
20260505001536 75 242 3.0 6.0 0.00 0.00 0.00 49 1004.9
20260505000533 76 226 3.0 4.0 0.00 0.00 0.00 48 1004.8
20260504235532 76 238 3.0 6.0 0.00 0.00 0.00 47 1004.9
20260504234530 76 243 5.0 9.0 0.00 0.00 0.00 46 1004.8
20260504233528 77 235 5.0 10.0 0.00 0.00 0.00 46 1004.7
20260504232526 77 240 6.0 11.0 0.00 0.00 0.00 46 1004.7
20260504231525 78 233 6.0 15.0 0.00 0.00 0.00 45 1004.7
20260504230543 79 242 5.0 9.0 0.00 0.00 0.00 45 1004.8
20260504225521 79 244 5.0 12.0 0.00 0.00 0.00 45 1004.9
20260504224519 79 239 7.0 16.0 0.00 0.00 0.00 43 1004.8
20260504223517 80 229 7.0 16.0 0.00 0.00 0.00 43 1004.8
20260504222515 81 245 5.0 10.0 0.00 0.00 0.00 43 1004.8
20260504221533 80 249 7.0 15.0 0.00 0.00 0.00 43 1004.8
20260504220531 80 242 6.0 15.0 0.00 0.00 0.00 44 1005.0
20260504215530 80 231 6.0 11.0 0.00 0.00 0.00 44 1005.0
20260504214528 81 241 8.0 15.0 0.00 0.00 0.00 43 1005.0
20260504213546 81 245 5.0 9.0 0.00 0.00 0.00 46 1005.2
20260504212524 80 238 7.0 13.0 0.00 0.00 0.00 43 1005.2
20260504211522 81 255 8.0 15.0 0.00 0.00 0.00 42 1005.3
20260504210520 81 232 7.0 15.0 0.00 0.00 0.00 44 1005.5
20260504205518 81 252 8.0 14.0 0.00 0.00 0.00 44 1005.5
20260504204517 81 248 8.0 13.0 0.00 0.00 0.00 43 1005.6
20260504203535 81 227 6.0 14.0 0.00 0.00 0.00 43 1005.7
20260504202533 81 242 8.0 14.0 0.00 0.00 0.00 44 1006.0
20260504201531 80 239 7.0 11.0 0.00 0.00 0.00 45 1006.1